| time (UTC) | temp F | wind direction | speed knots | gust knots | rain 1hr in | rain 24hr in | rain mn in | humidity % | barometer mb |
| 20260503215921 | 54 | 93 | 1.7 | 5.2 | 0.00 | 0.00 | 0.00 | 66 | 1014.3 |
| 20260503215603 | 54 | 100 | 0.9 | 2.6 | 0.00 | 0.00 | 0.00 | 68 | 1014.5 |
| 20260503214705 | 54 | 108 | 0.0 | 0.9 | 0.00 | 0.00 | 0.00 | 67 | 1014.6 |
| 20260503213803 | 53 | 65 | 0.9 | 1.7 | 0.00 | 0.00 | 0.00 | 68 | 1014.8 |
| 20260503212904 | 53 | 93 | 1.7 | 2.6 | 0.00 | 0.00 | 0.00 | 66 | 1015.0 |
| 20260503212004 | 53 | 1 | 0.0 | 1.7 | 0.00 | 0.00 | 0.00 | 71 | 1015.1 |
| 20260503211104 | 53 | 74 | 0.9 | 1.7 | 0.00 | 0.00 | 0.00 | 69 | 1015.1 |
| 20260503210204 | 53 | 104 | 0.9 | 0.9 | 0.00 | 0.00 | 0.00 | 70 | 1015.3 |
| 20260503204403 | 52 | 91 | 0.9 | 1.7 | 0.00 | 0.00 | 0.00 | 71 | 1015.5 |
| 20260503203503 | 50 | 261 | 0.0 | 0.9 | 0.00 | 0.00 | 0.00 | 76 | 1015.8 |
| 20260503202603 | 49 | 32 | 0.0 | 1.7 | 0.00 | 0.00 | 0.00 | 77 | 1016.0 |
| 20260503201703 | 49 | 39 | 0.0 | 0.0 | 0.00 | 0.00 | 0.00 | 73 | 1016.5 |
| 20260503200803 | 50 | 233 | 0.0 | 1.7 | 0.00 | 0.00 | 0.00 | 69 | 1016.9 |
| 20260503195903 | 51 | 355 | 0.9 | 1.7 | 0.00 | 0.00 | 0.00 | 64 | 1017.5 |
| 20260503195005 | 54 | 220 | 6.1 | 10.4 | 0.00 | 0.00 | 0.00 | 56 | 1017.9 |
| 20260503194104 | 55 | 217 | 10.4 | 13.9 | 0.00 | 0.00 | 0.00 | 49 | 1017.3 |
| 20260503193203 | 57 | 234 | 7.8 | 11.3 | 0.00 | 0.00 | 0.00 | 43 | 1016.9 |
| 20260503192305 | 57 | 253 | 2.6 | 6.1 | 0.00 | 0.00 | 0.00 | 43 | 1016.5 |
| 20260503191406 | 57 | 238 | 4.3 | 10.4 | 0.00 | 0.00 | 0.00 | 42 | 1016.6 |
| 20260503190503 | 58 | 221 | 6.1 | 7.0 | 0.00 | 0.00 | 0.00 | 40 | 1016.8 |
| 20260503185604 | 59 | 249 | 5.2 | 8.7 | 0.00 | 0.00 | 0.00 | 40 | 1017.0 |
| 20260503184705 | 59 | 222 | 5.2 | 7.0 | 0.00 | 0.00 | 0.00 | 41 | 1017.2 |
| 20260503183804 | 59 | 256 | 6.1 | 12.2 | 0.00 | 0.00 | 0.00 | 40 | 1017.3 |
| 20260503182903 | 60 | 212 | 7.0 | 14.8 | 0.00 | 0.00 | 0.00 | 42 | 1017.5 |
| 20260503182003 | 59 | 216 | 8.7 | 11.3 | 0.00 | 0.00 | 0.00 | 40 | 1017.6 |
| 20260503181104 | 59 | 250 | 8.7 | 10.4 | 0.00 | 0.00 | 0.00 | 41 | 1017.7 |
| 20260503180203 | 59 | 199 | 6.1 | 10.4 | 0.00 | 0.00 | 0.00 | 43 | 1017.7 |
| 20260503175305 | 59 | 231 | 6.1 | 7.0 | 0.00 | 0.00 | 0.00 | 43 | 1017.8 |
| 20260503174404 | 58 | 262 | 5.2 | 10.4 | 0.00 | 0.00 | 0.00 | 41 | 1018.0 |
| 20260503173503 | 58 | 234 | 6.1 | 13.0 | 0.00 | 0.00 | 0.00 | 44 | 1018.1 |
| 20260503172603 | 58 | 194 | 7.8 | 12.2 | 0.00 | 0.00 | 0.00 | 43 | 1018.1 |
| 20260503171704 | 57 | 210 | 7.0 | 13.9 | 0.00 | 0.00 | 0.00 | 42 | 1018.3 |
| 20260503170804 | 58 | 215 | 10.4 | 14.8 | 0.00 | 0.00 | 0.00 | 40 | 1018.4 |
| 20260503150203 | 54 | 242 | 5.2 | 13.9 | 0.00 | 0.00 | 0.00 | 53 | 1019.9 |
| 20260503131403 | 46 | 250 | 1.7 | 4.3 | 0.00 | 0.00 | 0.00 | 67 | 1020.0 |
| 20260503130504 | 45 | 243 | 1.7 | 5.2 | 0.00 | 0.00 | 0.00 | 70 | 1020.2 |
| 20260503120204 | 37 | 246 | 0.9 | 1.7 | 0.00 | 0.00 | 0.00 | 81 | 1020.3 |
| 20260503080804 | 34 | 202 | 0.0 | 0.0 | 0.00 | 0.00 | 0.00 | 85 | 1019.2 |
| 20260503072305 | 35 | 247 | 0.0 | 0.0 | 0.00 | 0.00 | 0.00 | 83 | 1019.2 |
| 20260503071402 | 35 | 247 | 0.0 | 0.0 | 0.00 | 0.00 | 0.00 | 84 | 1019.4 |
| 20260503070504 | 34 | 300 | 0.0 | 0.0 | 0.00 | 0.00 | 0.00 | 85 | 1019.4 |
| 20260503060205 | 34 | 302 | 0.0 | 0.9 | 0.00 | 0.00 | 0.00 | 86 | 1019.9 |
| 20260503054402 | 35 | 302 | 0.0 | 0.9 | 0.00 | 0.00 | 0.00 | 85 | 1019.9 |
| 20260503053504 | 35 | 302 | 0.0 | 0.0 | 0.00 | 0.00 | 0.00 | 85 | 1019.9 |
| 20260503052604 | 35 | 302 | 0.0 | 0.9 | 0.00 | 0.00 | 0.00 | 84 | 1020.0 |
| 20260503051702 | 35 | 302 | 0.0 | 0.9 | 0.00 | 0.00 | 0.00 | 84 | 1019.9 |
| 20260503050804 | 35 | 302 | 0.0 | 0.0 | 0.00 | 0.00 | 0.00 | 84 | 1019.9 |
| 20260503045904 | 35 | 302 | 0.0 | 0.0 | 0.00 | 0.00 | 0.00 | 84 | 1019.9 |
| 20260503045002 | 35 | 302 | 0.0 | 0.0 | 0.00 | 0.00 | 0.00 | 83 | 1019.8 |
| 20260503044103 | 36 | 302 | 0.0 | 0.0 | 0.00 | 0.00 | 0.00 | 82 | 1019.7 |
| 20260503043204 | 36 | 302 | 0.0 | 0.0 | 0.00 | 0.00 | 0.00 | 81 | 1019.7 |
| 20260503042305 | 36 | 302 | 0.0 | 0.0 | 0.00 | 0.00 | 0.00 | 79 | 1019.7 |
| 20260503041404 | 36 | 302 | 0.0 | 0.0 | 0.00 | 0.00 | 0.00 | 77 | 1019.5 |
| 20260503040504 | 37 | 302 | 0.0 | 0.0 | 0.00 | 0.00 | 0.00 | 76 | 1019.6 |
| 20260503035602 | 37 | 302 | 0.0 | 0.0 | 0.00 | 0.00 | 0.00 | 77 | 1019.7 |
| 20260503034702 | 37 | 302 | 0.0 | 0.0 | 0.00 | 0.00 | 0.00 | 77 | 1019.8 |
| 20260503033803 | 36 | 302 | 0.0 | 0.0 | 0.00 | 0.00 | 0.00 | 78 | 1019.8 |
| 20260503032905 | 36 | 302 | 0.0 | 0.0 | 0.00 | 0.00 | 0.00 | 79 | 1019.8 |
| 20260503032003 | 37 | 302 | 0.0 | 0.0 | 0.00 | 0.00 | 0.00 | 78 | 1019.8 |
| 20260503031103 | 37 | 302 | 0.0 | 0.0 | 0.00 | 0.00 | 0.00 | 77 | 1019.9 |
| 20260503030203 | 37 | 302 | 0.0 | 0.0 | 0.00 | 0.00 | 0.00 | 78 | 1019.8 |
| 20260503025305 | 37 | 302 | 0.0 | 0.0 | 0.00 | 0.00 | 0.00 | 76 | 1019.8 |
| 20260503024402 | 38 | 302 | 0.0 | 0.0 | 0.00 | 0.00 | 0.00 | 76 | 1019.8 |
| 20260503023503 | 38 | 302 | 0.0 | 0.0 | 0.00 | 0.00 | 0.00 | 76 | 1019.8 |
| 20260503022604 | 39 | 302 | 0.0 | 0.0 | 0.00 | 0.00 | 0.00 | 75 | 1019.7 |
| 20260503021704 | 39 | 302 | 0.0 | 0.0 | 0.00 | 0.00 | 0.00 | 74 | 1019.7 |
| 20260503020803 | 39 | 302 | 0.0 | 0.0 | 0.00 | 0.00 | 0.00 | 74 | 1019.7 |
| 20260503015904 | 40 | 302 | 0.0 | 0.0 | 0.00 | 0.00 | 0.00 | 73 | 1019.7 |
| 20260503015002 | 40 | 302 | 0.0 | 0.0 | 0.00 | 0.00 | 0.00 | 68 | 1019.5 |
| 20260503014104 | 41 | 302 | 0.0 | 0.0 | 0.00 | 0.00 | 0.00 | 71 | 1019.4 |
| 20260503013202 | 41 | 302 | 0.0 | 0.9 | 0.00 | 0.00 | 0.00 | 67 | 1019.5 |
| 20260503012305 | 41 | 302 | 0.0 | 0.0 | 0.00 | 0.00 | 0.00 | 67 | 1019.3 |
| 20260503011403 | 42 | 302 | 0.0 | 0.0 | 0.00 | 0.00 | 0.00 | 69 | 1019.3 |
| 20260503010502 | 43 | 302 | 0.0 | 0.0 | 0.00 | 0.00 | 0.00 | 61 | 1019.3 |
| 20260503005602 | 44 | 302 | 0.0 | 0.0 | 0.00 | 0.00 | 0.00 | 60 | 1019.2 |
| 20260503004702 | 45 | 302 | 0.0 | 0.0 | 0.00 | 0.00 | 0.00 | 54 | 1019.2 |
| 20260503003803 | 46 | 302 | 0.0 | 0.0 | 0.00 | 0.00 | 0.00 | 52 | 1019.2 |
| 20260503002903 | 48 | 302 | 0.0 | 0.0 | 0.00 | 0.00 | 0.00 | 51 | 1019.1 |
| 20260503002005 | 49 | 302 | 0.0 | 0.0 | 0.00 | 0.00 | 0.00 | 51 | 1019.0 |
| 20260503001104 | 49 | 302 | 0.0 | 0.0 | 0.00 | 0.00 | 0.00 | 51 | 1019.0 |
| 20260503000204 | 49 | 308 | 0.9 | 0.9 | 0.00 | 0.00 | 0.00 | 49 | 1019.0 |
| 20260502235305 | 48 | 290 | 1.7 | 2.6 | 0.00 | 0.00 | 0.00 | 48 | 1019.0 |
| 20260502234402 | 49 | 326 | 0.9 | 0.9 | 0.00 | 0.00 | 0.00 | 48 | 1019.0 |
| 20260502233503 | 48 | 302 | 0.9 | 1.7 | 0.00 | 0.00 | 0.00 | 47 | 1019.1 |
| 20260502232604 | 49 | 309 | 0.9 | 0.0 | 0.00 | 0.00 | 0.00 | 50 | 1019.1 |
| 20260502231703 | 49 | 301 | 2.6 | 2.6 | 0.00 | 0.00 | 0.00 | 48 | 1019.1 |
| 20260502230803 | 49 | 300 | 1.7 | 2.6 | 0.00 | 0.00 | 0.00 | 49 | 1019.1 |
| 20260502225902 | 48 | 308 | 0.9 | 2.6 | 0.00 | 0.00 | 0.00 | 52 | 1019.1 |
| 20260502225003 | 48 | 300 | 1.7 | 2.6 | 0.00 | 0.00 | 0.00 | 50 | 1019.2 |
| 20260502223202 | 49 | 304 | 1.7 | 2.6 | 0.00 | 0.00 | 0.00 | 50 | 1019.0 |
| 20260502222305 | 48 | 300 | 0.9 | 1.7 | 0.00 | 0.00 | 0.00 | 53 | 1019.2 |
| 20260502221402 | 49 | 300 | 0.9 | 2.6 | 0.00 | 0.00 | 0.00 | 51 | 1019.2 |